Home   Weather   Dawson Creek   Past weeks

Flag for Canada Past Weather in Dawson Creek, British Columbia, Canada — Yesterday and Last 2 Weeks

Now
54 °F

Sunny.


Feels Like: 48 °F
Forecast: 41 / 54 °F
Wind: 22 mph from West

Location: Dawson Creek Airport

Current Time: Sep 27, 2016 at 12:03:07 PM

Latest Report: Sep 27, 2016 at 11:00 AM


Visibility: 9 mi

Pressure: 30.08 "Hg (27.77 "Hg at 668m altitude)

Humidity: 41%

Dew Point: 30 °F

Location of Dawson CreekLocation

Past Weather in Dawson Creek — Graph

°F

Dawson Creek Temperature Yesterday

Maximum temperature yesterday: 73 °F (at 1:00 PM)
Minimum temperature yesterday: 50 °F (at 12:00 AM)
Average temperature yesterday: 62 °F

High & Low Weather Summary for the Past Weeks

 TemperatureHumidityPressure
High75 °F (Sep 13, 3:00 PM)100% (Sep 19, 8:00 AM)30.27 "Hg (Sep 19, 8:00 AM)
Low30 °F (Sep 21, 5:00 AM)28% (Sep 22, 2:00 PM)29.46 "Hg (Sep 17, 4:00 PM)
Average54 °F62%29.92 "Hg
* Reported Sep 12 11:00 AM — Sep 27 11:00 AM, Dawson Creek, Weather by CustomWeather, © 2016

Note: Actual official high and low records may vary slightly from our data, if they occured in-between our weather recording intervals... More about our weather records

Advertising

Dawson Creek Weather History for the Previous 24 Hours

Scroll right to see more
 ConditionsComfort  
Time TempWeatherWind HumidityBarometerVisibility
11:00 AM
Tue, Sep 27
54 °FSunny.22 mph41%30.08 "Hg9 mi
10:00 AM52 °FSunny.21 mph44%30.06 "Hg9 mi
9:00 AM50 °FSunny.18 mph47%30.04 "Hg9 mi
8:00 AM48 °FSunny.22 mph50%30.01 "Hg9 mi
7:00 AM46 °FClear.15 mph57%29.99 "Hg9 mi
6:00 AM46 °FClear.18 mph57%29.96 "Hg9 mi
5:00 AM46 °FClear.14 mph62%29.93 "Hg9 mi
4:00 AM48 °FPassing clouds.17 mph58%29.88 "Hg9 mi
3:00 AM52 °FMostly cloudy.16 mph54%29.86 "Hg9 mi
2:00 AM52 °FPassing clouds.18 mph54%29.82 "Hg9 mi
1:00 AM54 °FPassing clouds.15 mph63%29.77 "Hg9 mi
12:00 AM55 °FPartly cloudy.13 mph63%29.76 "Hg9 mi
11:00 PM
Mon, Sep 26
57 °FOvercast.14 mph63%29.75 "Hg9 mi
10:00 PM57 °FPartly cloudy.7 mph72%29.72 "Hg9 mi
9:45 PM57 °FOvercast.7 mph72%29.72 "Hg9 mi
9:00 PM59 °FOvercast.7 mph72%29.71 "Hg9 mi
8:02 PM63 °FLight rain. Mostly cloudy.14 mph56%29.69 "Hg9 mi
7:00 PM64 °FLight rain. Mostly cloudy.14 mph56%29.68 "Hg9 mi
6:56 PM66 °FLight rain. Cloudy.15 mph49%29.68 "Hg9 mi
6:00 PM68 °FMostly cloudy.10 mph40%29.69 "Hg9 mi
5:00 PM70 °FBroken clouds.9 mph38%29.69 "Hg9 mi
4:00 PM70 °FMostly cloudy.5 mph38%29.71 "Hg9 mi
3:00 PM72 °FPartly sunny.12 mph38%29.73 "Hg9 mi
2:00 PM72 °FOvercast.12 mph36%29.77 "Hg9 mi
1:00 PM73 °FPartly sunny.21 mph31%29.78 "Hg9 mi
12:00 PM72 °FPassing clouds.16 mph36%29.81 "Hg9 mi
Weather by CustomWeather, © 2016

See weather overviewHow to use our weather pages